Location: Huberhof
(49.2050°N, 7.4980°E)
Time: 01:27:11
(UTC+00:00)

Cosmos 2184 Rocket - Pass Details

Date: 29 October 2020
Orbit: 960 x 1001 km, 82.9° (Epoch: 26 November)

Event Time Altitude Azimuth Distance (km) Brightness Sun altitude
Rises 18:32:40 0° 354° (N) 3,705 7.2 -23.3°
Reaches altitude 10° 18:35:20 10° 1° (N) 2,758 6.4 -23.7°
Enters shadow 18:40:24 41° 50° (NE) 1,414 4.5 -24.5°
